[[{"header":{"parameterUnit":"m.s-1","parameterCategory":1,"la1":30.2991,"la2":30.254,"lo1":-89.0895,"lo2":-89.0444,"dy":0.0017,"dx":0.0017,"nx":28,"ny":28,"refTime":"2024-03-25T09:00:00:Z","depth":0,"parameterNumber":2,"parameterNumberName":"U-component_of_WINDS"},"data":[0,0,0,0,0,0,0,0,0,0,0,0,0,0,0,0,0,0,0,0,0,0,0,0,0,0,0,0,0,0,0,0,0,0,0,0,0,0,0,0,0,0,0,0,0,0,0,0,0,0,0,0,0,0,0,0,0,0,2.2243,2.2243,0,2.2299,2.2299,2.23,2.2289,2.2288,2.2287,2.2286,2.2347,2.235,2.2352,0,0,0,0,0,0,0,0,0,0,0,0,0,2.2131,2.2133,2.2243,2.2244,2.2244,2.2299,2.2299,2.23,2.229,2.2288,2.2287,2.2286,2.2347,2.235,2.2353,0,0,0,0,0,0,0,0,0,0,0,0,0,2.2183,2.2134,2.2243,2.2245,2.2246,2.2299,2.2299,2.23,2.229,2.2288,2.2287,2.2285,2.2346,2.2349,2.2353,2.2407,0,0,2.2365,2.2366,0,0,0,0,0,0,0,0,2.218,2.2187,2.2244,2.2245,2.2246,2.2285,2.2282,2.2336,2.229,2.2273,2.2286,2.2285,2.2328,2.2333,2.2347,2.241,2.2413,2.2365,2.2368,2.2369,2.237,0,0,0,0,0,0,0,2.2176,2.2184,2.2265,2.2245,2.2246,2.2245,2.2251,2.2293,2.2309,2.2275,2.2274,2.2281,2.2329,2.2344,2.2349,2.2414,2.2365,2.2368,2.2371,2.2372,2.2525,2.2527,0,0,0,0,0,0,2.2171,2.2181,2.2263,2.2267,2.2208,2.2248,2.2255,2.2275,2.2308,2.2312,2.2282,2.228,2.2338,2.2344,2.2351,2.2418,2.2369,2.2373,2.2375,2.2524,2.2526,2.2528,0,0,0,0,0,0,2.2169,2.2179,2.2261,2.2224,2.2234,2.2252,2.2274,2.2276,2.2292,2.2314,2.2317,2.2294,2.2337,2.2345,2.2393,2.242,2.2374,2.2378,2.2522,2.2524,2.2527,2.2551,0,0,0,0,0,0,2.2166,2.2178,2.2197,2.2224,2.2236,2.2302,2.2276,2.2279,2.2298,2.2296,2.2326,2.233,2.2336,2.2388,2.2397,2.2424,2.2381,2.2519,2.2523,2.2526,2.2548,2.2554,2.256,0,0,0,0,0,2.2162,2.2203,2.2199,2.2208,2.2261,2.2303,2.231,2.2316,2.23,2.2321,2.2335,2.2329,2.2415,2.2393,2.2403,2.2432,2.2518,2.2522,2.2526,2.2546,2.2553,2.2559,0,0,0,0,0,0,2.2179,2.2206,2.2202,2.2252,2.2275,2.2301,2.2327,2.2323,2.2352,2.2349,2.2357,2.2364,2.2413,2.2427,2.2402,2.2487,2.2464,2.2471,2.2476,2.2483,2.2489,2.2485,2.2384,0,0,0,0,0,2.2189,2.2219,2.2242,2.2284,2.2296,2.231,2.2328,2.2331,2.2355,2.2365,2.2383,2.2408,2.2441,2.2463,2.2494,2.255,2.2557,2.2575,2.2581,2.2585,2.2591,2.2623,2.2632,2.2541,2.2541,2.2541,0,0,2.2209,2.2228,2.2247,2.2288,2.2306,2.2339,2.2318,2.2353,2.2378,2.2371,2.2417,2.2432,2.246,2.2513,2.2537,2.2526,2.2618,2.259,2.2594,2.2597,2.2628,2.2637,2.2644,2.2543,2.2543,2.2543,0,0,2.2264,2.228,2.2318,2.2336,2.2364,2.2373,2.2382,2.2408,2.2417,2.2464,2.2459,2.249,2.2546,2.2567,2.2585,2.2648,2.2644,2.2658,2.2689,2.272,2.2727,2.2734,2.2758,2.2766,2.2664,2.2664,2.2664,0,2.2286,2.2334,2.2338,2.2374,2.2393,2.2387,2.2427,2.2445,2.2482,2.2496,2.2483,2.2554,2.2573,2.2631,2.2646,2.266,2.2673,2.2655,2.2725,2.2732,2.2738,2.2761,2.277,2.2665,2.2665,2.2665,2.2665,0,2.2361,2.2395,2.2422,2.2457,2.2479,2.2517,2.2528,2.255,2.2551,2.2562,2.261,2.2633,2.2669,2.2683,2.2684,2.2742,2.2734,2.2723,2.2701,2.2748,2.277,2.2779,2.2668,2.2667,2.2667,2.2666,0,0,2.2429,2.2465,2.2475,2.2492,2.2522,2.2548,2.2586,2.2621,2.2641,2.2666,2.27,2.2748,2.2738,2.2759,2.2762,2.279,2.284,2.2776,2.2776,2.2788,2.2907,2.2915,2.2925,2.2837,2.2839,2.284,2.2905,0,2.2487,2.2553,2.2558,2.2618,2.265,2.2645,2.2678,2.2701,2.2712,2.2742,2.2755,2.279,2.2774,2.2786,2.2813,2.2828,2.2864,2.2824,2.287,2.2871,2.2864,2.2937,2.2946,2.3006,2.2913,2.2915,2.2916,0,2.2564,2.2591,2.2654,2.268,2.2694,2.2724,2.2757,2.2785,2.2811,2.2818,2.2841,2.2841,2.2882,2.2857,2.2915,2.2887,2.2906,2.2917,2.2919,2.2925,2.2897,2.2946,2.3025,2.3034,2.2929,2.2928,2.2927,0,2.2608,2.2661,2.2705,2.2719,2.2751,2.2772,2.2787,2.2811,2.2832,2.2862,2.2876,2.2909,2.2928,2.2955,2.2965,2.2946,2.3023,2.2999,2.3031,2.3031,2.3048,2.3047,2.3133,2.3058,2.3058,2.3058,2.3058,0,2.2673,2.2713,2.2726,2.2754,2.2798,2.2804,2.2848,2.2861,2.2884,2.2915,2.2913,2.2943,2.2954,2.2986,2.2994,2.3041,2.3049,2.3057,2.3059,2.3058,2.3057,2.3072,2.3068,2.306,2.306,2.3059,2.3059,0,2.2731,2.2741,2.279,2.2816,2.2823,2.2855,2.2878,2.2906,2.2916,2.2956,2.2966,2.2984,2.3021,2.3034,2.308,2.3085,2.3141,2.3138,2.3132,2.3132,2.3164,2.3162,2.3263,2.3278,2.3192,2.3193,2.3194,0,2.2773,2.2802,2.2831,2.2852,2.2867,2.29,2.2921,2.2928,2.2951,2.2984,2.3008,2.3045,2.3075,2.3136,2.3154,2.3189,2.3189,2.3222,2.3194,2.3192,2.3191,2.3189,2.3193,2.3227,2.3228,2.3229,2.323,0,2.2846,2.2849,2.2879,2.2912,2.2937,2.2963,2.2988,2.3005,2.3016,2.3042,2.308,2.3103,2.315,2.3188,2.3224,2.324,2.3238,2.3238,2.3248,2.3248,2.3243,2.3247,2.3147,2.3236,2.3235,2.3235,2.3235,2.3234,2.2898,2.2924,2.2949,2.2983,2.3002,2.3026,2.3054,2.3068,2.3099,2.3137,2.314,2.3181,2.3209,2.3257,2.3275,2.3309,2.3299,2.3313,2.3317,2.332,2.3323,2.3236,2.3315,2.3315,2.3315,2.3315,2.3315,0,2.2972,2.2987,2.3018,2.3053,2.308,2.3074,2.3102,2.3125,2.3161,2.3186,2.3216,2.326,2.3297,2.3318,2.3355,2.3378,2.3378,2.3388,2.3387,2.3391,2.3329,2.3317,2.3387,2.3387,2.3387,2.3387,2.3387,2.3387,2.3014,2.3059,2.3066,2.3122,2.3137,2.3177,2.3194,2.3216,2.3236,2.3286,2.3316,2.3328,2.3352,2.3391,2.3425,2.343,2.3445,2.3456,2.346,2.3402,2.3395,2.3388,2.3377,2.3458,2.3458,2.3519,2.352,2.352]},{"header":{"parameterUnit":"m.s-1","parameterCategory":1,"la1":30.2991,"la2":30.254,"lo1":-89.0895,"lo2":-89.0444,"dy":0.0017,"dx":0.0017,"nx":28,"ny":28,"refTime":"2024-03-25T09:00:00:Z","depth":0,"parameterNumber":3,"parameterNumberName":"V-component_of_WINDS"},"data":[0,0,0,0,0,0,0,0,0,0,0,0,0,0,0,0,0,0,0,0,0,0,0,0,0,0,0,0,0,0,0,0,0,0,0,0,0,0,0,0,0,0,0,0,0,0,0,0,0,0,0,0,0,0,0,0,0,0,0.6953,0.6954,0,0.7031,0.7032,0.7033,0.7024,0.7022,0.7021,0.702,0.7101,0.7104,0.7108,0,0,0,0,0,0,0,0,0,0,0,0,0,0.6798,0.6801,0.6953,0.6954,0.6955,0.7031,0.7032,0.7033,0.7024,0.7022,0.7021,0.7019,0.71,0.7104,0.7108,0,0,0,0,0,0,0,0,0,0,0,0,0,0.687,0.6802,0.6953,0.696,0.6961,0.703,0.7032,0.7033,0.7024,0.7022,0.702,0.7019,0.7099,0.7104,0.7109,0.7177,0,0,0.7124,0.7126,0,0,0,0,0,0,0,0,0.6866,0.6876,0.6958,0.6959,0.6961,0.7016,0.7007,0.7081,0.7025,0.7,0.702,0.7018,0.7074,0.7081,0.71,0.7181,0.7184,0.7124,0.7127,0.713,0.7131,0,0,0,0,0,0,0,0.6861,0.6872,0.6984,0.6959,0.6961,0.6959,0.6967,0.7021,0.7047,0.7002,0.7002,0.7011,0.7075,0.7095,0.7102,0.7186,0.7124,0.7129,0.7132,0.7134,0.7326,0.7328,0,0,0,0,0,0,0.6854,0.6868,0.6982,0.6986,0.6908,0.6964,0.6973,0.7,0.7046,0.7052,0.7012,0.701,0.7088,0.7096,0.7105,0.7188,0.7129,0.7134,0.7137,0.7324,0.7326,0.7329,0,0,0,0,0,0,0.6851,0.6864,0.6978,0.6927,0.6941,0.6968,0.6999,0.7003,0.7023,0.7054,0.7059,0.7028,0.7086,0.7098,0.7159,0.719,0.7136,0.7141,0.7321,0.7324,0.7327,0.7354,0,0,0,0,0,0,0.6846,0.6863,0.6889,0.6928,0.6944,0.7031,0.7001,0.7005,0.7031,0.7029,0.707,0.7075,0.7086,0.7151,0.7164,0.7196,0.7145,0.7319,0.7323,0.7326,0.735,0.7358,0.7364,0,0,0,0,0,0.6841,0.6894,0.6891,0.6904,0.6977,0.7033,0.7042,0.7053,0.7034,0.706,0.708,0.7074,0.7185,0.7158,0.7172,0.7206,0.7317,0.7321,0.7326,0.7347,0.7356,0.7364,0,0,0,0,0,0,0.6859,0.6899,0.6896,0.6963,0.6994,0.7031,0.7065,0.7062,0.71,0.7097,0.7108,0.7118,0.718,0.7199,0.7168,0.7274,0.7248,0.7256,0.726,0.7268,0.7275,0.7269,0.7149,0,0,0,0,0,0.6871,0.6912,0.6945,0.7001,0.7017,0.7038,0.7063,0.7068,0.7102,0.7115,0.714,0.7173,0.7215,0.7243,0.7283,0.7353,0.7362,0.7383,0.739,0.7395,0.7402,0.744,0.745,0.7344,0.7344,0.7344,0,0,0.6896,0.6923,0.6949,0.7006,0.7031,0.7074,0.705,0.7096,0.7128,0.7122,0.7182,0.7201,0.7238,0.7304,0.7334,0.7322,0.7433,0.7401,0.7405,0.7409,0.7446,0.7456,0.7465,0.7347,0.7347,0.7346,0,0,0.6964,0.6988,0.7037,0.7063,0.71,0.7114,0.7126,0.7163,0.7175,0.7234,0.7231,0.7269,0.7342,0.7368,0.7392,0.7468,0.7464,0.7481,0.7516,0.7553,0.7562,0.7569,0.7596,0.7606,0.7487,0.7488,0.7488,0,0.699,0.7054,0.7063,0.711,0.7135,0.7131,0.7181,0.7205,0.7255,0.7273,0.7258,0.7348,0.7373,0.7445,0.7463,0.7482,0.7496,0.7477,0.7559,0.7567,0.7574,0.76,0.7611,0.7489,0.7489,0.7489,0.7489,0,0.7085,0.7129,0.7165,0.7212,0.7241,0.7289,0.7306,0.7334,0.7337,0.7352,0.7412,0.7442,0.7488,0.7505,0.7509,0.7577,0.7569,0.7557,0.7531,0.7586,0.7611,0.7621,0.7492,0.7491,0.7491,0.749,0,0,0.7167,0.7218,0.7231,0.7252,0.7293,0.7327,0.7375,0.742,0.7444,0.7478,0.7519,0.7579,0.7568,0.7595,0.7601,0.7633,0.7692,0.7617,0.7618,0.763,0.7769,0.7778,0.779,0.7689,0.7691,0.7692,0.7766,0,0.7239,0.7323,0.7332,0.7408,0.7449,0.7445,0.7486,0.7516,0.7531,0.7569,0.7586,0.7629,0.7611,0.7626,0.7658,0.7678,0.772,0.7672,0.7727,0.7729,0.7718,0.7803,0.7813,0.7881,0.7776,0.7777,0.7779,0,0.7334,0.737,0.7449,0.7484,0.7501,0.7539,0.758,0.7615,0.7649,0.7658,0.7687,0.7688,0.7738,0.7709,0.7778,0.7745,0.7768,0.7781,0.7784,0.779,0.7757,0.7811,0.7903,0.7913,0.7794,0.7793,0.7792,0,0.7386,0.7454,0.751,0.7528,0.757,0.7597,0.7615,0.7647,0.7673,0.7709,0.7726,0.7768,0.7791,0.7823,0.7836,0.7814,0.7903,0.7876,0.7912,0.7912,0.7932,0.7931,0.8029,0.7946,0.7946,0.7946,0.7946,0,0.7465,0.7514,0.7534,0.7569,0.7623,0.7633,0.7687,0.7704,0.7732,0.777,0.777,0.7805,0.782,0.7858,0.7869,0.7924,0.7934,0.7943,0.7945,0.7943,0.7942,0.7958,0.7954,0.7948,0.7948,0.7947,0.7947,0,0.7533,0.7548,0.7609,0.7643,0.7653,0.7692,0.7721,0.7755,0.7769,0.7817,0.7829,0.7852,0.7897,0.7912,0.7967,0.7974,0.8038,0.8036,0.8027,0.8027,0.8063,0.8059,0.8175,0.8191,0.8097,0.8098,0.8099,0,0.7582,0.762,0.7658,0.7683,0.7702,0.7743,0.7769,0.778,0.7808,0.7848,0.7877,0.7921,0.7957,0.8029,0.8051,0.8092,0.8092,0.813,0.8098,0.8095,0.8092,0.809,0.8094,0.8136,0.8137,0.8137,0.8138,0,0.7669,0.7674,0.7712,0.7752,0.7784,0.7816,0.7847,0.7868,0.7884,0.7915,0.796,0.7988,0.8043,0.8087,0.813,0.8149,0.8147,0.8148,0.8158,0.8157,0.815,0.8154,0.8043,0.8145,0.8144,0.8144,0.8143,0.8143,0.7729,0.7762,0.7794,0.7836,0.786,0.7889,0.7922,0.794,0.7978,0.8024,0.8028,0.8077,0.8109,0.8166,0.8187,0.8226,0.8215,0.8231,0.8235,0.8238,0.8241,0.8143,0.8233,0.8233,0.8233,0.8233,0.8233,0,0.7816,0.7836,0.7874,0.7918,0.7951,0.7944,0.7978,0.8006,0.8049,0.8079,0.8115,0.8167,0.8209,0.8234,0.8276,0.8302,0.8302,0.8313,0.8311,0.8316,0.8248,0.8235,0.8312,0.8312,0.8312,0.8312,0.8312,0.8312,0.7865,0.792,0.7929,0.7996,0.8016,0.8064,0.8084,0.8111,0.8134,0.8192,0.8227,0.8243,0.8271,0.8315,0.8354,0.836,0.8375,0.8388,0.8393,0.8329,0.8321,0.8313,0.83,0.8391,0.8391,0.8458,0.8458,0.8459]}]]